Weather History for Ionia, MI

Change the Weather History Date:

Monday, August 26, 2013

  Actual Average (KGRR) Record (KGRR)
Temperature  
Mean Temperature 78 °F 70 °F  
Max Temperature 85 °F 80 °F 95 °F (1973)
Min Temperature 70 °F 60 °F 42 °F (1945)
Degree Days  
Heating Degree Days 0 1  
Month to date heating degree days 4  
Since 1 June heating degree days 55  
Since 1 July heating degree days 10  
Cooling Degree Days 12 5  
Month to date cooling degree days 169  
Year to date cooling degree days 600  
Since 1 June cooling degree days 553  
Growing Degree Days 28 (Base 50)    
Moisture  
Dew Point 66 °F    
Average Humidity 68    
Maximum Humidity 83    
Minimum Humidity 55    
Precipitation  
Precipitation 0.00 in 0.12 in 2.07 in (1986)
Month to date precipitation 2.98  
Year to date precipitation 24.11  
Snow  
Snow 0.00 in 0.00 in 0.00 in ()
Month to date snowfall 0.0  
Since 1 June snowfall 0.0  
Since 1 July snowfall 0.0  
Snow Depth -    
Sea Level Pressure  
Sea Level Pressure 30.07 in    
Wind  
Wind Speed 11 mph (WSW)    
Max Wind Speed 17 mph    
Max Gust Speed 23 mph    
Visibility 10 miles    
Events      
T = Trace of Precipitation, MM = Missing Value Source: NWS Daily Summary

Daily Weather History Graph

Daily Weather History Graph

Search for Another Location

Airport:

Trip Planner

Search our weather history database for the weather conditions in past years. The results will help you decide how hot, cold, wet, or windy it might be!

Date:

Astronomy

Aug. 26, 2013 Rise Set
Actual Time 6:58 AM EDT 8:24 PM EDT
Civil Twilight 6:28 AM EDT 8:54 PM EDT
Nautical Twilight 5:53 AM EDT 9:29 PM EDT
Astronomical Twilight 5:15 AM EDT 10:07 PM EDT
Moon 11:24 PM EDT (8/26) 1:09 PM EDT (8/26)
Length of Visible Light 14h 25m
Length of Day
13h 26m
Waning Gibbous, 67% of the Moon is Illuminated
Aug 26
Waning Gibbous
Aug 28
Last Quarter
Sep 5
New
Sep 12
First Quarter
Sep 19
Full

Hourly Weather History & Observations

Time (EDT) Temp. Heat Index Dew Point Humidity Pressure Visibility Wind Dir Wind Speed Gust Speed Precip Events Conditions
12:14 AM 74.8 °F - 64.8 °F 71% 30.15 in 10.0 mi SW 9.2 mph - N/A   Clear
12:34 AM 74.7 °F - 64.2 °F 70% 30.15 in 10.0 mi SW 9.2 mph - N/A   Clear
12:54 AM 74.3 °F - 63.7 °F 69% 30.14 in 10.0 mi SW 9.2 mph - N/A   Clear
1:14 AM 73.4 °F - 63.5 °F 71% 30.14 in 10.0 mi SW 9.2 mph - N/A   Clear
1:34 AM 72.9 °F - 63.0 °F 71% 30.13 in 10.0 mi SW 9.2 mph - N/A   Clear
1:54 AM 73.2 °F - 62.8 °F 70% 30.12 in 10.0 mi SW 10.4 mph - N/A   Clear
2:14 AM 73.8 °F - 62.8 °F 68% 30.12 in 10.0 mi WSW 10.4 mph - N/A   Clear
2:34 AM 73.4 °F - 62.8 °F 69% 30.11 in 10.0 mi WSW 10.4 mph - N/A   Clear
2:54 AM 73.4 °F - 62.6 °F 69% 30.11 in 10.0 mi SW 11.5 mph - N/A   Clear
3:14 AM 72.7 °F - 62.8 °F 71% 30.11 in 10.0 mi WSW 9.2 mph - N/A   Clear
3:34 AM 72.1 °F - 63.0 °F 73% 30.12 in 10.0 mi WSW 10.4 mph - N/A   Clear
3:54 AM 71.8 °F - 63.0 °F 74% 30.12 in 10.0 mi WSW 8.1 mph - N/A   Clear
4:14 AM 71.6 °F - 62.8 °F 74% 30.12 in 10.0 mi WSW 11.5 mph - N/A   Clear
4:34 AM 71.2 °F - 62.8 °F 75% 30.12 in 10.0 mi WSW 11.5 mph - N/A   Clear
4:54 AM 71.4 °F - 62.6 °F 74% 30.11 in 10.0 mi WSW 11.5 mph - N/A   Clear
5:14 AM 71.2 °F - 62.6 °F 74% 30.11 in 10.0 mi WSW 10.4 mph - N/A   Clear
5:34 AM 71.1 °F - 62.6 °F 75% 30.11 in 10.0 mi WSW 10.4 mph - N/A   Clear
5:54 AM 70.7 °F - 62.6 °F 75% 30.11 in 10.0 mi WSW 12.7 mph 17.3 mph N/A   Clear
6:14 AM 70.5 °F - 62.4 °F 75% 30.11 in 10.0 mi WSW 11.5 mph - N/A   Clear
6:34 AM 70.3 °F - 62.2 °F 75% 30.12 in 10.0 mi West 12.7 mph - N/A   Clear
6:54 AM 70.2 °F - 62.2 °F 76% 30.13 in 10.0 mi West 10.4 mph - N/A   Clear
7:14 AM 70.0 °F - 62.4 °F 77% 30.13 in 10.0 mi West 9.2 mph - N/A   Clear
7:34 AM 70.2 °F - 62.6 °F 77% 30.13 in 10.0 mi WSW 10.4 mph - N/A   Clear
7:54 AM 71.1 °F - 62.6 °F 75% 30.13 in 10.0 mi WSW 10.4 mph 16.1 mph N/A   Clear
8:14 AM 72.0 °F - 62.6 °F 72% 30.13 in 10.0 mi WSW 10.4 mph 16.1 mph N/A   Clear
8:34 AM 73.0 °F - 62.8 °F 70% 30.12 in 10.0 mi WSW 11.5 mph - N/A   Clear
8:54 AM 75.2 °F - 63.1 °F 66% 30.11 in 10.0 mi WSW 13.8 mph 20.7 mph N/A   Clear
9:14 AM 76.1 °F - 63.3 °F 64% 30.11 in 10.0 mi West 17.3 mph 21.9 mph N/A   Clear
9:34 AM 75.7 °F - 63.5 °F 66% 30.12 in 10.0 mi West 16.1 mph 20.7 mph N/A   Clear
9:54 AM 76.5 °F - 63.7 °F 64% 30.11 in 10.0 mi WSW 16.1 mph 20.7 mph N/A   Clear
10:14 AM 78.1 °F - 64.0 °F 62% 30.11 in 10.0 mi West 16.1 mph - N/A   Scattered Clouds
10:34 AM 77.0 °F - 63.9 °F 64% 30.11 in 10.0 mi West 13.8 mph 21.9 mph N/A   Mostly Cloudy
10:54 AM 77.4 °F - 64.4 °F 64% 30.12 in 10.0 mi West 9.2 mph 16.1 mph N/A   Scattered Clouds
11:14 AM 77.9 °F - 64.8 °F 64% 30.12 in 10.0 mi West 9.2 mph 17.3 mph N/A   Clear
11:34 AM 80.1 °F 82.0 °F 65.3 °F 61% 30.11 in 10.0 mi West 9.2 mph 19.6 mph N/A   Clear
11:54 AM 81.5 °F 83.4 °F 65.7 °F 58% 30.10 in 10.0 mi West 11.5 mph - N/A   Clear
12:14 PM 83.5 °F 85.5 °F 65.8 °F 55% 30.09 in 10.0 mi West 16.1 mph 23.0 mph N/A   Clear
12:34 PM 82.6 °F 84.9 °F 66.2 °F 58% 30.08 in 10.0 mi West 13.8 mph - N/A   Clear
12:54 PM 81.7 °F 83.8 °F 66.2 °F 59% 30.07 in 10.0 mi West 12.7 mph 20.7 mph N/A   Clear
1:14 PM 82.4 °F 84.8 °F 66.7 °F 59% 30.06 in 10.0 mi WSW 12.7 mph - N/A   Clear
1:34 PM 82.0 °F 84.5 °F 66.9 °F 60% 30.05 in 10.0 mi WSW 15.0 mph - N/A   Clear
1:54 PM 85.6 °F 88.8 °F 67.6 °F 55% 30.05 in 10.0 mi West 15.0 mph - N/A   Clear
2:14 PM 81.9 °F 84.4 °F 67.1 °F 61% 30.04 in 10.0 mi WSW 13.8 mph 19.6 mph N/A   Clear
2:34 PM 82.4 °F 85.0 °F 67.3 °F 60% 30.04 in 10.0 mi West 13.8 mph - N/A   Clear
2:54 PM 82.9 °F 85.6 °F 67.3 °F 59% 30.03 in 10.0 mi SW 12.7 mph - N/A   Clear
3:14 PM 83.3 °F 86.2 °F 67.6 °F 59% 30.03 in 10.0 mi WSW 13.8 mph 18.4 mph N/A   Clear
3:34 PM 82.6 °F 85.3 °F 67.6 °F 60% 30.03 in 10.0 mi West 10.4 mph - N/A   Clear
3:54 PM 83.1 °F 86.3 °F 68.2 °F 61% 30.03 in 10.0 mi WSW 9.2 mph - N/A   Clear
4:14 PM 83.8 °F 87.0 °F 68.0 °F 59% 30.02 in 10.0 mi WSW 15.0 mph 19.6 mph N/A   Clear
4:34 PM 83.1 °F 86.1 °F 68.0 °F 60% 30.02 in 10.0 mi West 11.5 mph - N/A   Clear
4:54 PM 83.8 °F 86.7 °F 67.8 °F 58% 30.02 in 10.0 mi WSW 12.7 mph - N/A   Clear
5:14 PM 83.3 °F 86.2 °F 67.6 °F 59% 30.03 in 10.0 mi WSW 12.7 mph - N/A   Clear
5:34 PM 83.3 °F 86.4 °F 68.0 °F 60% 30.03 in 10.0 mi WSW 9.2 mph - N/A   Clear
5:54 PM 83.1 °F 86.1 °F 68.0 °F 60% 30.02 in 10.0 mi West 11.5 mph - N/A   Mostly Cloudy
6:14 PM 82.6 °F 85.7 °F 68.4 °F 62% 30.02 in 10.0 mi West 10.4 mph - N/A   Mostly Cloudy
6:34 PM 82.6 °F 85.7 °F 68.4 °F 62% 30.02 in 10.0 mi West 10.4 mph - N/A   Mostly Cloudy
6:54 PM 83.1 °F 86.6 °F 68.7 °F 62% 30.02 in 10.0 mi West 10.4 mph - N/A   Mostly Cloudy
7:14 PM 82.2 °F 85.3 °F 68.5 °F 63% 30.01 in 10.0 mi West 12.7 mph - N/A   Mostly Cloudy
7:34 PM 81.5 °F 84.6 °F 68.9 °F 65% 30.01 in 10.0 mi West 9.2 mph - N/A   Scattered Clouds
7:54 PM 80.6 °F 83.6 °F 69.1 °F 68% 30.01 in 10.0 mi West 6.9 mph - N/A   Clear
8:14 PM 79.3 °F - 69.3 °F 71% 30.01 in 10.0 mi WSW 4.6 mph - N/A   Clear
8:34 PM 78.6 °F - 69.8 °F 74% 30.00 in 10.0 mi SW 4.6 mph - N/A   Light Drizzle
8:54 PM 78.3 °F - 69.8 °F 75% 30.00 in 10.0 mi SW 4.6 mph - N/A   Scattered Clouds
9:14 PM 77.5 °F - 69.8 °F 77% 30.00 in 10.0 mi SW 4.6 mph - N/A   Mostly Cloudy
9:34 PM 77.0 °F - 69.8 °F 78% 29.99 in 10.0 mi SW 5.8 mph - N/A   Mostly Cloudy
9:54 PM 76.6 °F - 70.2 °F 80% 30.00 in 7.0 mi SW 4.6 mph - N/A   Scattered Clouds
10:14 PM 76.1 °F - 70.2 °F 82% 30.00 in 10.0 mi SW 5.8 mph - N/A   Scattered Clouds
10:34 PM 76.1 °F - 70.3 °F 82% 29.99 in 10.0 mi SW 8.1 mph - N/A   Scattered Clouds
10:54 PM 76.3 °F - 70.3 °F 82% 29.99 in 10.0 mi SW 9.2 mph - N/A   Clear
11:14 PM 76.5 °F - 70.3 °F 81% 29.98 in 10.0 mi WSW 9.2 mph - N/A   Clear
11:34 PM 76.5 °F - 70.7 °F 82% 29.98 in 10.0 mi WSW 8.1 mph - N/A   Clear
11:54 PM 76.1 °F - 70.7 °F 83% 29.98 in 10.0 mi West 6.9 mph - N/A   Clear